Weather History for Silver City, NM

Change the Weather History Date:

Wednesday, May 13, 2009

  Actual Average (KDMN) Record (KDMN)
Temperature  
Mean Temperature 66 °F 68 °F  
Max Temperature 86 °F 86 °F 96 °F (1959)
Min Temperature 46 °F 51 °F 37 °F (1957)
Cooling Degree Days 1    
Growing Degree Days 16 (Base 50)    
Moisture  
Dew Point 12 °F    
Average Humidity 13    
Maximum Humidity 25    
Minimum Humidity 5    
Precipitation  
Precipitation 0.00 in 0.02 in 0.30 in (1992)
Month to date precipitation 0.30  
Year to date precipitation 2.28  
Sea Level Pressure  
Sea Level Pressure 30.01 in    
Wind  
Wind Speed 13 mph (NW)    
Max Wind Speed 23 mph    
Max Gust Speed 29 mph    
Visibility 10 miles    
Events      
T = Trace of Precipitation, MM = Missing Value Source: NWS Daily Summary

Daily Weather History Graph

Daily Weather History Graph

Search for Another Location

Airport:

Trip Planner

Search our weather history database for the weather conditions in past years. The results will help you decide how hot, cold, wet, or windy it might be!

Date:

Astronomy

May. 13, 2009 Rise Set
Actual Time 6:15 AM MDT 8:03 PM MDT
Civil Twilight 5:48 AM MDT 8:30 PM MDT
Nautical Twilight 5:15 AM MDT 9:02 PM MDT
Astronomical Twilight 4:41 AM MDT 9:37 PM MDT
Moon No Moon Rise 9:35 AM MDT (5/13)
Length of Visible Light 14h 41m
Length of Day
13h 47m
Waning Gibbous, 81% of the Moon is Illuminated
May 13
Waning Gibbous
May 17
Last Quarter
May 24
New
May 30
First Quarter
Jun 7
Full

Hourly Weather History & Observations

Time (MDT) Temp. Windchill Dew Point Humidity Pressure Visibility Wind Dir Wind Speed Gust Speed Precip Events Conditions
12:10 AM 62.6 °F - 10.4 °F 13% 29.99 in 10.0 mi NW 12.7 mph - N/A   Clear
12:30 AM 60.8 °F - 10.4 °F 14% 29.99 in 10.0 mi NW 11.5 mph - N/A   Clear
12:50 AM 59.0 °F - 10.4 °F 15% 30.00 in 10.0 mi NNW 11.5 mph - N/A   Clear
1:10 AM 59.0 °F - 12.2 °F 16% 29.99 in 10.0 mi NNW 12.7 mph - N/A   Clear
1:30 AM 57.2 °F - 12.2 °F 17% 29.99 in 10.0 mi NNW 11.5 mph - N/A   Clear
1:50 AM 53.6 °F - 12.2 °F 19% 29.99 in 10.0 mi North 9.2 mph - N/A   Clear
2:10 AM 53.6 °F - 12.2 °F 19% 29.99 in 10.0 mi North 10.4 mph - N/A   Clear
2:30 AM 55.4 °F - 12.2 °F 18% 29.99 in 10.0 mi North 10.4 mph - N/A   Clear
2:50 AM 55.4 °F - 12.2 °F 18% 29.99 in 10.0 mi North 10.4 mph - N/A   Clear
3:10 AM 53.6 °F - 12.2 °F 19% 29.99 in 10.0 mi North 9.2 mph - N/A   Clear
3:30 AM 53.6 °F - 12.2 °F 19% 29.99 in 10.0 mi North 10.4 mph - N/A   Clear
3:50 AM 51.8 °F - 12.2 °F 21% 30.00 in 10.0 mi North 9.2 mph - N/A   Clear
4:10 AM 50.0 °F - 12.2 °F 22% 30.00 in 10.0 mi NNW 10.4 mph - N/A   Clear
4:30 AM 48.2 °F - 10.4 °F 22% 30.00 in 10.0 mi NNW 10.4 mph - N/A   Clear
4:50 AM 46.4 °F 41.5 °F 12.2 °F 25% 30.00 in 10.0 mi NNW 10.4 mph - N/A   Clear
5:10 AM 46.4 °F 41.1 °F 12.2 °F 25% 30.00 in 10.0 mi NNW 11.5 mph - N/A   Clear
5:30 AM 50.0 °F - 14.0 °F 24% 30.00 in 10.0 mi NNW 13.8 mph - N/A   Clear
5:50 AM 53.6 °F - 15.8 °F 22% 30.00 in 10.0 mi NNW 12.7 mph - N/A   Clear
6:10 AM 53.6 °F - 15.8 °F 22% 30.00 in 10.0 mi NNW 11.5 mph - N/A   Clear
6:30 AM 53.6 °F - 15.8 °F 22% 30.00 in 10.0 mi NNW 12.7 mph - N/A   Clear
6:50 AM 55.4 °F - 15.8 °F 21% 30.01 in 10.0 mi NNW 12.7 mph - N/A   Clear
7:10 AM 59.0 °F - 15.8 °F 19% 30.01 in 10.0 mi NW 15.0 mph - N/A   Clear
7:30 AM 62.6 °F - 15.8 °F 16% 30.02 in 10.0 mi NW 12.7 mph - N/A   Clear
7:50 AM 64.4 °F - 17.6 °F 16% 30.02 in 10.0 mi NW 12.7 mph - N/A   Clear
8:10 AM 66.2 °F - 17.6 °F 15% 30.03 in 10.0 mi NW 11.5 mph - N/A   Clear
8:30 AM 69.8 °F - 17.6 °F 14% 30.04 in 10.0 mi WNW 16.1 mph - N/A   Clear
8:50 AM 73.4 °F - 19.4 °F 13% 30.05 in 10.0 mi NW 17.3 mph 24.2 mph N/A   Clear
9:10 AM 73.4 °F - 17.6 °F 12% 30.05 in 10.0 mi NW 19.6 mph 24.2 mph N/A   Clear
9:30 AM 73.4 °F - 17.6 °F 12% 30.06 in 10.0 mi NW 18.4 mph 23.0 mph N/A   Clear
9:50 AM 75.2 °F - 17.6 °F 11% 30.05 in 10.0 mi WNW 17.3 mph 24.2 mph N/A   Clear
10:10 AM 75.2 °F - 17.6 °F 11% 30.05 in 10.0 mi WNW 16.1 mph 24.2 mph N/A   Clear
10:30 AM 77.0 °F - 14.0 °F 9% 30.05 in 10.0 mi WNW 10.4 mph 25.3 mph N/A   Clear
10:50 AM 77.0 °F - 14.0 °F 9% 30.05 in 10.0 mi WNW 11.5 mph 23.0 mph N/A   Clear
11:10 AM 77.0 °F - 14.0 °F 9% 30.05 in 10.0 mi West 15.0 mph 24.2 mph N/A   Clear
11:30 AM 78.8 °F - 12.2 °F 8% 30.05 in 10.0 mi West 19.6 mph 24.2 mph N/A   Clear
11:50 AM 80.6 °F - 12.2 °F 8% 30.05 in 10.0 mi West 16.1 mph 26.5 mph N/A   Clear
12:10 PM 80.6 °F - 14.0 °F 8% 30.05 in 10.0 mi West 17.3 mph 27.6 mph N/A   Clear
12:30 PM 82.4 °F - 10.4 °F 7% 30.04 in 10.0 mi WNW 23.0 mph 27.6 mph N/A   Clear
12:50 PM 82.4 °F - 12.2 °F 7% 30.04 in 10.0 mi NW 19.6 mph 28.8 mph N/A   Clear
1:10 PM 82.4 °F - 10.4 °F 7% 30.03 in 10.0 mi WNW 23.0 mph 28.8 mph N/A   Clear
1:30 PM 82.4 °F - 8.6 °F 6% 30.03 in 10.0 mi West 16.1 mph 28.8 mph N/A   Clear
1:50 PM 82.4 °F - 8.6 °F 6% 30.03 in 10.0 mi West 13.8 mph 26.5 mph N/A   Clear
2:10 PM 84.2 °F - 8.6 °F 6% 30.02 in 10.0 mi West 15.0 mph 26.5 mph N/A   Clear
2:30 PM 84.2 °F - 8.6 °F 6% 30.02 in 10.0 mi West 13.8 mph 21.9 mph N/A   Clear
2:50 PM 84.2 °F - 6.8 °F 5% 30.01 in 10.0 mi NW 18.4 mph 26.5 mph N/A   Clear
3:10 PM 84.2 °F - 6.8 °F 5% 30.01 in 10.0 mi NW 11.5 mph 21.9 mph N/A   Clear
3:30 PM 84.2 °F - 8.6 °F 6% 30.00 in 10.0 mi West 12.7 mph 26.5 mph N/A   Clear
3:50 PM 84.2 °F - 6.8 °F 5% 30.00 in 10.0 mi WNW 18.4 mph 26.5 mph N/A   Clear
4:10 PM 86.0 °F - 6.8 °F 5% 30.00 in 10.0 mi WNW 20.7 mph 26.5 mph N/A   Clear
4:30 PM 84.2 °F - 8.6 °F 6% 30.00 in 10.0 mi NW 18.4 mph 25.3 mph N/A   Clear
4:50 PM 84.2 °F - 6.8 °F 5% 30.00 in 10.0 mi WNW 16.1 mph 26.5 mph N/A   Clear
5:10 PM 84.2 °F - 8.6 °F 6% 29.99 in 10.0 mi WNW 19.6 mph 26.5 mph N/A   Clear
5:30 PM 84.2 °F - 8.6 °F 6% 29.99 in 10.0 mi WNW 19.6 mph 26.5 mph N/A   Clear
5:50 PM 84.2 °F - 10.4 °F 6% 29.99 in 10.0 mi West 17.3 mph 26.5 mph N/A   Clear
6:10 PM 84.2 °F - 6.8 °F 5% 29.99 in 10.0 mi WNW 16.1 mph 24.2 mph N/A   Clear
6:30 PM 84.2 °F - 8.6 °F 6% 29.99 in 10.0 mi WNW 16.1 mph 23.0 mph N/A   Clear
6:50 PM 82.4 °F - 8.6 °F 6% 29.99 in 10.0 mi WNW 19.6 mph 24.2 mph N/A   Clear
7:10 PM 82.4 °F - 8.6 °F 6% 29.99 in 10.0 mi West 13.8 mph 20.7 mph N/A   Clear
7:30 PM 80.6 °F - 8.6 °F 6% 29.99 in 10.0 mi WNW 13.8 mph 19.6 mph N/A   Clear
7:50 PM 78.8 °F - 8.6 °F 7% 30.00 in 10.0 mi WNW 11.5 mph 16.1 mph N/A   Clear
8:10 PM 75.2 °F - 8.6 °F 8% 30.01 in 10.0 mi WNW 11.5 mph - N/A   Clear
8:30 PM 71.6 °F - 8.6 °F 9% 30.01 in 10.0 mi NW 9.2 mph - N/A   Clear
8:50 PM 66.2 °F - 8.6 °F 11% 30.02 in 10.0 mi NW 11.5 mph - N/A   Clear
9:10 PM 66.2 °F - 8.6 °F 11% 30.02 in 10.0 mi NW 11.5 mph - N/A   Clear
9:30 PM 59.0 °F - 8.6 °F 14% 30.03 in 10.0 mi NW 11.5 mph - N/A   Clear
9:50 PM 59.0 °F - 10.4 °F 15% 30.03 in 10.0 mi NNW 12.7 mph - N/A   Clear
10:10 PM 59.0 °F - 12.2 °F 16% 30.04 in 10.0 mi NNW 11.5 mph - N/A   Clear
10:30 PM 57.2 °F - 12.2 °F 17% 30.05 in 10.0 mi NNW 11.5 mph - N/A   Clear
10:50 PM 59.0 °F - 12.2 °F 16% 30.05 in 10.0 mi NNW 11.5 mph - N/A   Clear
11:10 PM 62.6 °F - 12.2 °F 14% 30.05 in 10.0 mi North 10.4 mph - N/A   Clear
11:30 PM 59.0 °F - 12.2 °F 16% 30.05 in 10.0 mi NNW 11.5 mph - N/A   Clear
11:50 PM 60.8 °F - 12.2 °F 15% 30.05 in 10.0 mi NNW 11.5 mph - N/A   Clear